Tracking 19170 objects as of 23-May-2018
HD Live streaming from Space Station
objects crossing your sky now

NOAA 16 DEB

Track NOAA 16 DEB now!
10-day predictions


NORAD ID: 41254
Int'l Code: 2000-055FE
Perigee: 799.2 km
Apogee: 858.9 km
Inclination: 99.1 °
Period: 101.3 minutes
Semi major axis: 7200 km
RCS: Unknown
Launch date: September 21, 2000
Source: United States (US)
Launch site: AIR FORCE WESTERN TEST RANGE (AFWTR)

Note: This is SATELLITE DEBRIS
aabbcc
Your satellite tracking list
Your tracking list is empty




NASA's NSSDC Master Catalog

Two Line Element Set (TLE):
1 41254U 00055FE  18143.50143311  .00001761  00000-0  82646-3 0  9995
2 41254  99.0762 247.0045 0041474  93.6311 266.9609 14.21008507123288
Source of the keplerian elements: AFSPC